TimeCDT,TemperatureF,Dew PointF,Humidity,Sea Level PressureIn,VisibilityMPH,Wind Direction,Wind SpeedMPH,Gust SpeedMPH,PrecipitationIn,Events,Conditions,WindDirDegrees,DateUTC
12:05 AM,33.8,32.0,93,30.42,4.0,North,6.9,-,N/A,Rain,Rain,360,2013-05-02 05:05:00
12:10 AM,33.8,32.0,93,30.42,5.0,North,8.1,-,N/A,Rain,Rain,360,2013-05-02 05:10:00
12:21 AM,33.8,32.0,93,30.43,4.0,NNW,6.9,-,N/A,Rain,Rain,340,2013-05-02 05:21:00
12:48 AM,33.8,32.0,93,30.44,6.0,North,9.2,-,N/A,Rain,Light Rain,350,2013-05-02 05:48:00
12:56 AM,34.0,32.0,92,30.45,7.0,North,10.4,-,N/A,Rain,Light Rain,10,2013-05-02 05:56:00
1:09 AM,33.8,32.0,93,30.45,6.0,NNW,6.9,-,N/A,Rain,Rain,340,2013-05-02 06:09:00
1:30 AM,33.8,32.0,93,30.45,6.0,North,5.8,-,N/A,Rain,Rain,350,2013-05-02 06:30:00
1:56 AM,33.1,32.0,96,30.47,6.0,North,5.8,-,N/A,Rain,Light Rain,10,2013-05-02 06:56:00
2:56 AM,33.1,32.0,96,30.45,10.0,North,9.2,-,N/A,Rain,Light Rain,360,2013-05-02 07:56:00
3:15 AM,33.8,32.0,93,30.42,6.0,North,10.4,-,N/A,Rain,Light Rain,10,2013-05-02 08:15:00
3:21 AM,33.8,32.0,93,30.42,6.0,North,10.4,-,N/A,Rain,Light Rain,10,2013-05-02 08:21:00
3:29 AM,33.8,32.0,93,30.42,6.0,North,12.7,-,N/A,Rain,Light Rain,360,2013-05-02 08:29:00
3:45 AM,33.8,30.2,87,30.42,6.0,North,10.4,19.6,N/A,Rain,Light Rain,360,2013-05-02 08:45:00
3:56 AM,33.1,30.9,92,30.45,6.0,North,9.2,-,N/A,Rain,Light Rain,350,2013-05-02 08:56:00
4:18 AM,33.8,30.2,87,30.41,8.0,North,10.4,-,N/A,Rain,Light Rain,360,2013-05-02 09:18:00
4:30 AM,33.8,30.2,87,30.42,5.0,North,8.1,17.3,N/A,Rain,Rain,360,2013-05-02 09:30:00
4:41 AM,33.8,32.0,93,30.42,6.0,North,6.9,-,N/A,Rain,Rain,10,2013-05-02 09:41:00
4:56 AM,33.1,30.9,92,30.45,6.0,North,11.5,18.4,N/A,Rain,Rain,350,2013-05-02 09:56:00
5:36 AM,33.8,30.2,87,30.45,2.5,North,10.4,-,N/A,Rain,Heavy Rain,350,2013-05-02 10:36:00
5:49 AM,32.0,30.2,93,30.44,1.8,North,8.1,16.1,N/A,Rain,Heavy Rain,360,2013-05-02 10:49:00
5:56 AM,32.0,30.9,96,30.47,1.5,North,11.5,-,N/A,Snow,Light Snow,360,2013-05-02 10:56:00
6:49 AM,32.0,30.2,93,30.44,0.2,North,11.5,16.1,0.09,Fog-Snow,Heavy Snow,350,2013-05-02 11:49:00
6:56 AM,32.0,30.9,96,30.47,0.2,North,10.4,16.1,0.12,Fog-Snow,Heavy Snow,360,2013-05-02 11:56:00
7:12 AM,32.0,30.2,93,30.43,0.2,North,9.2,-,0.05,Fog-Snow,Heavy Snow,360,2013-05-02 12:12:00
7:19 AM,32.0,30.2,93,30.43,0.5,North,12.7,18.4,0.06,Fog-Snow,Snow,360,2013-05-02 12:19:00
7:56 AM,30.9,30.0,96,30.49,0.2,NNW,9.2,-,0.12,Fog-Snow,Snow,340,2013-05-02 12:56:00
8:10 AM,30.2,30.2,100,30.46,0.5,North,9.2,-,0.02,Fog-Snow,Snow,350,2013-05-02 13:10:00
8:41 AM,30.2,30.2,100,30.46,0.2,North,8.1,-,0.08,Fog-Snow,Heavy Snow,350,2013-05-02 13:41:00
8:56 AM,30.9,30.9,100,30.48,0.2,North,10.4,-,0.14,Fog-Snow,Heavy Snow,360,2013-05-02 13:56:00
9:12 AM,30.2,30.2,100,30.45,0.5,North,8.1,-,0.04,Fog-Snow,Snow,350,2013-05-02 14:12:00
9:56 AM,30.9,30.0,96,30.50,0.5,North,9.2,-,0.10,Fog-Snow,Snow,350,2013-05-02 14:56:00
10:13 AM,32.0,30.2,93,30.45,1.2,North,8.1,-,0.00,Snow,Light Snow,350,2013-05-02 15:13:00
10:43 AM,32.0,30.2,93,30.46,1.0,North,6.9,-,0.01,Snow,Light Snow,360,2013-05-02 15:43:00
10:56 AM,32.0,30.0,92,30.48,0.8,North,9.2,-,0.02,Snow,Light Snow,360,2013-05-02 15:56:00
11:17 AM,32.0,30.2,93,30.44,0.8,North,8.1,-,0.01,Snow,Light Snow,360,2013-05-02 16:17:00
11:43 AM,32.0,30.2,93,30.43,1.0,North,10.4,-,0.02,Snow,Light Snow,10,2013-05-02 16:43:00
11:56 AM,32.0,30.9,96,30.48,0.8,North,8.1,-,0.03,Snow,Light Snow,360,2013-05-02 16:56:00
12:56 PM,33.1,30.9,92,30.48,1.0,North,8.1,-,0.06,Snow,Light Snow,350,2013-05-02 17:56:00
1:12 PM,33.8,30.2,87,30.44,1.8,North,10.4,18.4,0.00,Snow,Light Snow,360,2013-05-02 18:12:00
1:23 PM,33.8,30.2,87,30.43,1.0,NNE,10.4,-,0.00,Snow,Light Snow,20,2013-05-02 18:23:00
1:56 PM,33.1,32.0,96,30.48,1.2,North,4.6,-,0.00,Snow,Light Snow,360,2013-05-02 18:56:00
2:24 PM,33.8,32.0,93,30.45,0.5,North,6.9,-,0.02,Fog-Snow,Snow,10,2013-05-02 19:24:00
2:56 PM,33.1,30.9,92,30.48,1.0,North,9.2,-,0.02,Snow,Light Snow,10,2013-05-02 19:56:00
3:56 PM,33.1,30.9,92,30.46,2.0,North,9.2,-,0.00,Snow,Light Snow,360,2013-05-02 20:56:00
4:03 PM,33.8,30.2,87,30.42,1.8,North,10.4,18.4,0.00,Snow,Light Snow,10,2013-05-02 21:03:00
4:42 PM,33.8,30.2,87,30.42,0.8,North,8.1,-,0.00,Snow,Light Snow,10,2013-05-02 21:42:00
4:52 PM,33.8,30.2,87,30.42,1.0,North,12.7,16.1,0.00,Snow,Light Snow,10,2013-05-02 21:52:00
4:56 PM,33.1,30.9,92,30.45,1.0,NNE,8.1,-,0.00,Snow,Light Snow,20,2013-05-02 21:56:00
5:09 PM,33.8,30.2,87,30.41,1.5,North,9.2,17.3,0.00,Snow,Light Snow,10,2013-05-02 22:09:00
5:22 PM,33.8,30.2,87,30.42,2.0,North,9.2,-,0.00,Snow,Light Snow,360,2013-05-02 22:22:00
5:34 PM,33.8,30.2,87,30.42,1.5,North,8.1,-,0.00,Snow,Light Snow,360,2013-05-02 22:34:00
5:49 PM,33.8,30.2,87,30.42,0.8,North,9.2,-,0.00,Snow,Light Snow,10,2013-05-02 22:49:00
5:56 PM,33.1,30.9,92,30.45,1.0,North,13.8,18.4,0.00,Snow,Light Snow,360,2013-05-02 22:56:00
6:03 PM,32.0,30.2,93,30.41,1.0,North,12.7,18.4,0.00,Snow,Light Snow,360,2013-05-02 23:03:00
6:11 PM,32.0,30.2,93,30.41,1.2,North,10.4,-,0.00,Snow,Light Snow,10,2013-05-02 23:11:00
6:46 PM,32.0,30.2,93,30.41,1.5,North,9.2,-,0.00,Snow,Light Snow,10,2013-05-02 23:46:00
6:56 PM,32.0,30.0,92,30.44,1.2,North,10.4,-,0.00,Snow,Light Snow,10,2013-05-02 23:56:00
7:37 PM,32.0,30.2,93,30.40,1.5,North,9.2,-,0.00,Snow,Light Snow,10,2013-05-03 00:37:00
7:48 PM,32.0,30.2,93,30.40,2.5,North,9.2,-,0.00,Snow,Light Snow,360,2013-05-03 00:48:00
7:56 PM,32.0,30.0,92,30.44,3.0,North,9.2,-,0.00,Snow,Light Snow,360,2013-05-03 00:56:00
8:56 PM,32.0,28.9,88,30.44,7.0,North,6.9,-,0.00,Snow,Light Snow,10,2013-05-03 01:56:00
9:56 PM,32.0,28.9,88,30.43,5.0,North,10.4,-,0.00,Snow,Light Snow,10,2013-05-03 02:56:00
10:07 PM,32.0,28.4,87,30.40,3.0,North,9.2,-,0.00,Snow,Light Snow,10,2013-05-03 03:07:00
10:14 PM,32.0,28.4,87,30.40,2.5,NNE,10.4,-,0.00,Snow,Light Snow,20,2013-05-03 03:14:00
10:22 PM,32.0,28.4,87,30.40,3.0,North,10.4,19.6,0.00,Snow,Light Snow,10,2013-05-03 03:22:00
10:56 PM,32.0,28.9,88,30.42,3.0,North,5.8,-,0.00,Snow,Light Snow,10,2013-05-03 03:56:00
11:56 PM,32.0,28.0,85,30.41,9.0,North,8.1,-,0.00,,Overcast,360,2013-05-03 04:56:00